Date String (YYYY-MM-DD hh:mm:ss) UTC,Instrument flags,absolute air pressure of the measurement (hPa),sample flow rate (lpm),inlet stack bypass flow (lpm),air temperature of the measurement (°C),ambient temperature measured by the external sensor (°C),aerosol sample conditioner tube jacket temperature (°C),OPC LED temperature (°C),internal box temperature (°C),relative humidity of the measurement (%),span deviation,mass concentration of particles derived from Lorenz-Mie calculation of OPC scattering (μg/m³),mass concentration of particles derived from Lorenz-Mie calculation of OPC scattering (μg/m³),mass concentration of particles derived from Lorenz-Mie calculation of OPC scattering (μg/m³)
DateTimeUTC,F1_M11,P_M11,Q1_M11,Q2_M11,T1_M11,T2_M11,T3_M11,T4_M11,T5_M11,U1_M11,ZSPAN_M11,X0_M11,X2_M11,X1_M11
2024-04-05 21:00:00,SystemResetWarning,0815.9,5.00,000.00,026.3,025.5,000.0,034.8,028.1,008.5,0000.0,0009.03,0002.07,0001.26
2024-04-05 21:01:00,SystemResetWarning,0815.8,5.00,000.00,026.3,025.5,000.0,034.8,028.1,008.7,0000.0,0009.16,0002.01,0001.24
2024-04-05 21:02:00,SystemResetWarning,0815.9,4.99,000.00,026.3,025.5,000.0,034.8,028.1,008.5,0000.0,0009.06,0002.01,0001.23
2024-04-05 21:03:00,SystemResetWarning,0815.9,4.99,000.00,026.3,025.5,000.0,034.8,028.1,008.4,0000.0,0010.25,0002.05,0001.23
2024-04-05 21:04:00,SystemResetWarning,0815.8,5.00,000.00,026.3,025.5,000.0,034.8,028.1,008.3,0000.0,0010.66,0002.08,0001.23
2024-04-05 21:05:00,SystemResetWarning,0815.9,5.01,000.00,026.3,025.5,000.0,034.8,028.1,008.5,0000.0,0011.05,0002.08,0001.24
2024-04-05 21:06:00,SystemResetWarning,0815.8,5.00,000.00,026.3,025.5,000.0,034.8,028.1,008.0,0000.0,0011.15,0002.11,0001.24
2024-04-05 21:07:00,SystemResetWarning,0815.9,5.00,000.00,026.3,025.5,000.0,034.8,028.1,008.1,0000.0,0010.54,0002.23,0001.26
2024-04-05 21:08:00,SystemResetWarning,0815.8,5.00,000.00,026.3,025.6,000.0,034.8,028.1,008.3,0000.0,0010.50,0002.29,0001.26
2024-04-05 21:09:00,SystemResetWarning,0815.8,5.00,000.00,026.4,025.6,000.0,034.8,028.1,008.3,0000.0,0010.24,0002.27,0001.26
2024-04-05 21:10:00,SystemResetWarning,0815.7,5.01,000.00,026.4,025.6,000.0,034.8,028.1,007.8,0000.0,0009.73,0002.26,0001.25
2024-04-05 21:11:00,SystemResetWarning,0815.6,5.00,000.00,026.4,025.6,000.0,034.8,028.1,008.0,0000.0,0011.07,0002.23,0001.24
2024-04-05 21:12:00,SystemResetWarning,0815.6,5.00,000.00,026.4,025.6,000.0,034.8,028.1,008.1,0000.0,0011.23,0002.22,0001.25
2024-04-05 21:13:00,SystemResetWarning,0815.6,5.00,000.00,026.4,025.6,000.0,034.9,028.2,007.8,0000.0,0011.44,0002.22,0001.24
2024-04-05 21:14:00,SystemResetWarning,0815.5,5.00,000.00,026.4,025.6,000.0,034.9,028.2,007.8,0000.0,0011.54,0002.19,0001.23
2024-04-05 21:15:00,SystemResetWarning,0815.4,5.00,000.00,026.4,025.6,000.0,034.9,028.2,007.1,0000.0,0011.29,0002.19,0001.22
2024-04-05 21:16:00,SystemResetWarning,0815.4,4.99,000.00,026.4,025.6,000.0,034.9,028.2,007.4,0000.0,0010.97,0002.20,0001.21
2024-04-05 21:17:00,SystemResetWarning,0815.4,5.01,000.00,026.4,025.7,000.0,034.9,028.2,007.0,0000.0,0011.46,0002.24,0001.20
2024-04-05 21:18:00,SystemResetWarning,0815.4,5.00,000.00,026.4,025.7,000.0,034.9,028.2,007.5,0000.0,0011.25,0002.14,0001.18
2024-04-05 21:19:00,SystemResetWarning,0815.3,5.00,000.00,026.4,025.7,000.0,034.9,028.2,007.6,0000.0,0012.05,0002.09,0001.16
2024-04-05 21:20:00,SystemResetWarning,0815.4,5.00,000.00,026.4,025.7,000.0,034.9,028.2,007.3,0000.0,0012.18,0002.07,0001.15
2024-04-05 21:21:00,SystemResetWarning,0815.4,5.01,000.00,026.4,025.7,000.0,034.9,028.2,007.2,0000.0,0012.06,0002.11,0001.15
2024-04-05 21:22:00,SystemResetWarning,0815.3,5.00,000.00,026.4,025.7,000.0,034.9,028.2,007.4,0000.0,0011.84,0002.17,0001.14
2024-04-05 21:23:00,SystemResetWarning,0815.3,5.00,000.00,026.4,025.7,000.0,034.9,028.2,006.7,0000.0,0011.59,0002.22,0001.13
2024-04-05 21:24:00,SystemResetWarning,0815.3,4.99,000.00,026.5,025.7,000.0,034.9,028.3,006.9,0000.0,0011.62,0002.24,0001.12
2024-04-05 21:25:00,SystemResetWarning,0815.3,4.99,000.00,026.5,025.7,000.0,034.9,028.3,007.0,0000.0,0010.97,0002.25,0001.14
2024-04-05 21:26:00,SystemResetWarning,0815.3,5.00,000.00,026.5,025.7,000.0,034.9,028.3,007.1,0000.0,0010.25,0002.16,0001.13
2024-04-05 21:27:00,SystemResetWarning,0815.2,5.01,000.00,026.5,025.7,000.0,034.9,028.3,006.9,0000.0,0009.67,0002.12,0001.13
2024-04-05 21:28:00,SystemResetWarning,0815.3,5.01,000.00,026.5,025.8,000.0,035.0,028.3,006.7,0000.0,0009.39,0002.08,0001.12
2024-04-05 21:29:00,SystemResetWarning,0815.3,4.99,000.00,026.5,025.8,000.0,035.0,028.3,006.7,0000.0,0009.37,0002.07,0001.13
2024-04-05 21:30:00,SystemResetWarning,0815.3,4.99,000.00,026.5,025.8,000.0,035.0,028.3,006.8,0000.0,0008.41,0002.03,0001.14
2024-04-05 21:31:00,SystemResetWarning,0815.2,4.99,000.00,026.5,025.8,000.0,035.0,028.3,006.7,0000.0,0008.40,0002.02,0001.13
2024-04-05 21:32:00,SystemResetWarning,0815.2,5.00,000.00,026.5,025.8,000.0,035.0,028.3,007.1,0000.0,0008.34,0001.99,0001.12
2024-04-05 21:33:00,SystemResetWarning,0815.1,5.00,000.00,026.6,025.8,000.0,035.0,028.4,006.3,0000.0,0007.58,0002.02,0001.13
2024-04-05 21:34:00,SystemResetWarning,0815.2,5.01,000.00,026.6,025.8,000.0,035.0,028.4,006.4,0000.0,0007.81,0001.95,0001.12
2024-04-05 21:35:00,SystemResetWarning,0815.2,5.01,000.00,026.6,025.8,000.0,035.0,028.4,006.4,0000.0,0008.03,0001.88,0001.11
2024-04-05 21:36:00,SystemResetWarning,0815.1,5.00,000.00,026.6,025.9,000.0,035.0,028.4,006.5,0000.0,0008.42,0001.85,0001.09
2024-04-05 21:37:00,SystemResetWarning,0815.1,5.00,000.00,026.6,025.9,000.0,035.0,028.4,006.4,0000.0,0009.53,0001.92,0001.08
2024-04-05 21:38:00,SystemResetWarning,0815.1,4.99,000.00,026.6,025.9,000.0,035.0,028.4,006.3,0000.0,0010.25,0001.92,0001.08
2024-04-05 21:39:00,SystemResetWarning,0815.1,5.00,000.00,026.6,025.9,000.0,035.1,028.4,006.2,0000.0,0010.39,0001.91,0001.08
2024-04-05 21:40:00,SystemResetWarning,0815.1,4.99,000.00,026.6,025.9,000.0,035.1,028.4,006.8,0000.0,0010.03,0001.89,0001.08
2024-04-05 21:41:00,SystemResetWarning,0815.1,4.99,000.00,026.6,025.9,000.0,035.1,028.4,007.4,0000.0,0010.22,0001.95,0001.08
2024-04-05 21:42:00,SystemResetWarning,0815.1,5.00,000.00,026.6,025.9,000.0,035.1,028.4,007.4,0000.0,0010.56,0002.02,0001.10
2024-04-05 21:43:00,SystemResetWarning,0815.1,5.00,000.00,026.7,025.9,000.0,035.1,028.4,008.0,0000.0,0010.86,0002.07,0001.12
2024-04-05 21:44:00,SystemResetWarning,0815.1,5.01,000.00,026.7,025.9,000.0,035.1,028.4,008.1,0000.0,0011.61,0002.07,0001.14
2024-04-05 21:45:00,SystemResetWarning,0815.1,5.00,000.00,026.6,025.5,000.0,035.1,028.2,008.2,0000.0,0012.32,0002.16,0001.14
2024-04-05 21:46:00,SystemResetWarning,0815.0,4.98,000.00,026.3,023.6,000.0,035.2,027.2,008.7,0000.0,0013.17,0002.29,0001.16
2024-04-05 21:47:00,SystemResetWarning,0815.0,5.02,000.00,025.9,022.7,000.0,035.1,026.6,007.7,0000.0,0013.46,0002.36,0001.19
2024-04-05 21:48:00,SystemResetWarning,0815.0,4.99,000.00,025.8,022.9,000.0,035.0,026.7,008.0,0000.0,0013.07,0002.36,0001.22
2024-04-05 21:49:00,SystemResetWarning,0814.9,5.00,000.00,025.7,023.3,000.0,034.8,026.9,008.2,0000.0,0014.79,0002.38,0001.23
2024-04-05 21:50:00,SystemResetWarning,0814.9,5.00,000.00,025.7,023.6,000.0,034.7,027.1,008.2,0000.0,0015.05,0002.40,0001.24
2024-04-05 21:51:00,SystemResetWarning,0814.9,5.01,000.00,025.7,023.9,000.0,034.6,027.3,008.4,0000.0,0015.12,0002.45,0001.25
2024-04-05 21:52:00,SystemResetWarning,0814.9,5.00,000.00,025.8,024.2,000.0,034.6,027.4,007.9,0000.0,0015.37,0002.48,0001.26
2024-04-05 21:53:00,SystemResetWarning,0814.9,5.00,000.00,025.8,024.4,000.0,034.5,027.5,008.1,0000.0,0015.02,0002.46,0001.27
2024-04-05 21:54:00,SystemResetWarning,0814.9,5.00,000.00,025.8,024.6,000.0,034.5,027.5,008.4,0000.0,0014.57,0002.45,0001.28
2024-04-05 21:55:00,SystemResetWarning,0815.0,5.00,000.00,025.8,024.7,000.0,034.5,027.6,008.3,0000.0,0014.35,0002.43,0001.27
2024-04-05 21:56:00,SystemResetWarning,0814.9,4.99,000.00,025.8,024.8,000.0,034.5,027.6,008.0,0000.0,0014.77,0002.41,0001.28
2024-04-05 21:57:00,SystemResetWarning,0814.9,4.99,000.00,025.9,024.9,000.0,034.5,027.7,008.1,0000.0,0014.04,0002.37,0001.27
2024-04-05 21:58:00,SystemResetWarning,0815.0,5.00,000.00,025.9,025.0,000.0,034.4,027.7,008.3,0000.0,0013.35,0002.33,0001.27
2024-04-05 21:59:00,SystemResetWarning,0815.0,5.00,000.00,025.9,025.1,000.0,034.4,027.7,008.6,0000.0,0013.87,0002.38,0001.26
